SCP
0 0 0 0 0 0 0 0 0 0 0 0 0 0 0 0 0 0 0 0 0 0 0 0 0 0 0 0 0 0 0 0
0 0 0 0 0 0 0 0 0 0 0 0 0 0 0 0 0 0 0 0 0 0 0 0 0 0 0 0 0 0 0 0
0 0 0 0 0 0 0 0 0 0 0 0 0 0 0 0 0 0 0 0 0 0 0 0 0 0 0 0 0 0 0 0
0 0 0 0 0 0 0 0 0 0 0 0 0 0 0 0 0 0 0 0 0 0 0 0 0 0 0 0 0 0 0 0
0 0 0 0 0 0 0 0 0 0 0 0 0 0 0 0 0 0 0 0 0 0 0 0 0 0 0 0 0 0 0 0
0 0 0 0 0 0 0 0 0 0 0 0 0 0 0 0 0 0 0 0 0 0 0 0 0 0 0 0 0 0 0 0
0 0 0 0 0 0 0 0 0 0 0 0 0 0 0 0 0 0 0 0 0 0 0 0 0 0 0 0 0 0 0 0
0 0 0 0 0 0 0 0 0 0 0 0 0 0 0 0 0 0 0 0 0 0 0 0 0 0 0 0 0 0 0 0
0 0 0 0 0 0 0 0 0 0 0 0 0 0 0 0 0 0 0 0 0 0 0 0 0 0 0 0 0 0 0 0
0 0 0 0 0 0 0 0 0 0 0 0 0 0 0 0 0 0 0 0 0 0 0 0 0 0 0 0 0 0 0 0
0 0 0 0 0 0 0 0 0 0 0 0 0 0 0 0 0 0 0 0 0 0 0 0 0 0 0 0 -0 -0 -0 0
0 0 0 0 0 0 0 0 0 0 0 0 0 0 0 0 0 0 0 0 0 0 0 0 0 0 0 0 0 0 0 0
0 0 0 0 0 0 0 0 0 0 0 0 0 0 0 0 0 0 0 0 0 0 0 0 0 0 0 0 0 0 0 0
0 0 0 0 0 0 0 0 0 0 0 0 0 0 0 0 0 0 0 0 0 0 0 0 0 0 0 0 0 0 0 0
0 0 0 0 0 0 0 0 0 0 0 0 0 0 0 0 0 0 0 0 0 0 0 0 0 0 0 0 0 0 0 0
0 0 0 0 0 0 0 0 0 0 0 0 0 0 0 0 0 0 0 0 0 0 0 0 0 0 0 0 0 0 0 0
0 0 0 0 0 0 0 0 0 0 0 0 0 0 0 0 0 0 0 0 0 0 0 0 0 0 0 0 0 0 0 0
0 0 0 0 0 0 0 0 0 0 0 0 0 0 0 0 0 0 0 0 0 0 0 0 0 0 0 0 0 0 0 0
0 0 0 0 0 0 0 0 0 0 0 0 0 0 0 0 0 0 0 0 0 0 0 0 0 0 0 0 0 0 0 0
0 0 0 0 0 0 0 0 0 0 0 0 0 0 0 0 0 0 0 0 0 0 0 0 0 0 0 0 0 0 0 0
Wind_Speed_500mb
37 37 31 27 25 23 21 17 17 19 21 23 23 23 24 26 27 28 31 33 36 38 39 39 37 35 33 31 31 31 31 33
40 39 35 32 31 27 23 22 22 22 23 24 23 25 29 31 34 36 36 38 38 36 35 33 29 26 26 26 27 28 30 31
46 44 40 40 36 34 32 29 27 24 25 26 27 29 33 35 36 37 37 36 34 31 27 23 18 16 15 21 26 31 34 37
48 50 47 45 43 41 36 33 28 26 26 28 29 31 32 33 32 31 28 26 22 18 13 10 11 13 19 27 33 37 40 42
57 56 53 54 50 49 44 35 30 27 27 28 29 29 30 29 27 23 18 13 11 10 10 12 16 18 25 30 35 37 40 44
60 61 63 65 60 55 49 39 34 32 31 29 28 26 24 21 19 15 11 9 9 10 12 16 21 26 33 37 40 42 44 46
68 71 74 73 67 60 53 45 39 37 33 30 27 25 22 18 15 11 8 7 9 12 16 20 26 30 35 39 43 44 47 51
79 81 79 80 74 64 57 49 44 41 35 31 27 25 21 18 14 11 11 13 15 18 21 24 29 35 40 42 45 49 51 53
82 83 84 82 74 67 57 49 44 39 33 28 24 22 19 17 14 14 15 17 19 22 26 27 31 38 43 47 49 50 52 52
84 89 87 82 73 62 55 47 42 37 31 27 23 20 18 15 14 14 14 16 20 23 27 31 33 37 43 48 53 53 55 53
75 82 77 71 62 56 50 45 41 36 30 26 22 19 16 14 13 15 18 21 25 27 31 35 39 39 44 49 55 59 63 61
72 70 65 57 53 53 49 47 39 33 28 24 21 17 15 13 15 17 20 24 28 31 32 33 39 38 43 49 49 56 63 64
64 64 58 49 49 49 47 41 36 31 26 24 20 16 13 13 15 19 23 26 29 32 32 35 40 41 43 49 46 50 62 65
54 57 52 54 54 51 45 40 34 29 27 22 18 15 14 15 18 22 25 28 30 33 37 40 42 45 47 49 53 55 60 64
50 51 49 52 56 46 39 35 30 25 22 19 17 13 13 15 19 23 27 30 32 36 38 41 44 45 48 54 56 62 67 68
48 47 49 51 46 44 39 34 29 25 21 18 16 13 15 18 21 24 28 30 32 34 38 43 45 45 41 48 49 55 58 63
49 49 49 47 44 38 33 28 24 20 18 17 17 16 18 21 22 24 26 26 28 32 36 40 44 44 43 47 44 47 50 58
47 43 39 39 39 34 29 25 21 20 20 18 17 18 22 24 26 26 25 28 28 31 37 41 45 45 48 43 40 48 52 57
42 44 41 38 33 29 25 27 26 19 17 18 20 23 26 28 30 32 33 34 32 32 38 40 42 44 45 40 50 51 48 55
43 45 46 43 37 31 28 22 18 18 20 22 25 28 29 30 31 33 36 40 43 39 31 38 40 42 42 45 50 55 58 57
Wind_Direction_500mb
210 215 220 220 227 231 238 250 265 277 284 288 292 292 292 293 292 294 295 294 292 290 290 292 294 297 299 298 303 306 307 306
217 224 226 227 230 234 240 247 255 262 269 275 281 284 287 291 294 295 295 294 294 295 294 294 298 301 304 312 319 324 328 330
228 232 234 230 228 232 237 242 246 253 263 271 276 282 287 291 293 296 297 296 297 297 296 298 301 311 342 349 349 349 347 348
232 241 239 232 231 237 241 244 248 255 263 270 277 284 290 294 296 297 296 296 296 296 302 319 315 343 348 350 350 351 352 351
235 239 238 236 236 240 242 244 250 258 266 272 278 283 287 290 294 297 299 301 303 306 318 328 319 337 343 350 349 348 349 347
237 242 238 238 236 238 243 245 251 257 265 272 278 282 285 286 288 292 302 315 328 338 339 336 327 336 343 345 344 343 343 342
241 242 240 238 238 239 241 241 245 251 255 261 267 272 273 273 272 276 289 314 330 336 338 339 332 338 339 339 338 340 338 338
245 242 240 239 237 237 238 238 239 243 248 253 258 262 262 262 265 277 298 317 326 332 335 337 332 333 333 334 335 336 336 337
241 240 240 240 236 234 235 235 237 239 243 246 249 250 251 255 269 291 309 319 326 332 332 332 329 329 328 329 331 332 332 336
242 236 235 236 234 230 228 228 231 233 234 236 237 241 246 255 274 293 308 319 324 329 329 328 328 328 326 327 329 329 329 332
229 227 228 230 227 225 222 220 222 224 224 226 227 234 250 267 289 307 317 322 325 327 327 327 324 333 329 331 331 330 330 334
219 218 221 223 220 219 216 218 218 217 216 218 222 231 242 267 294 305 315 320 322 323 325 321 319 328 325 324 330 329 328 331
211 213 220 217 213 212 212 212 210 208 208 215 222 234 253 277 294 305 312 314 317 317 318 319 322 327 327 326 331 328 330 329
216 213 209 204 205 207 208 202 201 201 208 215 226 241 262 286 301 307 310 313 315 317 319 321 323 327 325 325 327 326 328 326
216 208 200 199 198 203 201 197 199 206 214 223 235 250 276 294 302 306 307 309 314 316 317 320 324 325 323 325 330 326 326 325
217 209 201 196 198 187 190 192 198 207 217 230 247 265 283 291 300 306 306 310 314 316 318 320 321 323 322 324 330 324 325 318
208 207 198 190 188 185 186 195 204 214 224 238 254 272 287 295 301 303 303 306 310 316 316 316 317 318 317 323 324 322 322 320
197 197 197 188 188 188 192 202 212 227 235 251 274 288 294 297 297 294 294 303 309 312 312 313 315 317 318 324 320 320 324 322
187 191 195 197 195 195 204 218 223 233 250 269 283 291 295 296 298 301 306 308 311 313 313 312 312 313 318 319 320 321 322 321
190 193 199 203 205 209 213 222 237 254 267 279 288 290 290 292 298 304 308 310 312 313 312 308 310 315 321 320 323 324 325 324
Wind_Speed_850mb
37 37 31 27 25 23 21 17 17 19 21 23 23 23 24 26 27 28 31 33 36 38 39 39 37 35 33 31 31 31 31 33
40 39 35 32 31 27 23 22 22 22 23 24 23 25 29 31 34 36 36 38 38 36 35 33 29 26 26 26 27 28 30 31
46 44 40 40 36 34 32 29 27 24 25 26 27 29 33 35 36 37 37 36 34 31 27 23 18 16 15 21 26 31 34 37
48 50 47 45 43 41 36 33 28 26 26 28 29 31 32 33 32 31 28 26 22 18 13 10 11 13 19 27 33 37 40 42
57 56 53 54 50 49 44 35 30 27 27 28 29 29 30 29 27 23 18 13 11 10 10 12 16 18 25 30 35 37 40 44
60 61 63 65 60 55 49 39 34 32 31 29 28 26 24 21 19 15 11 9 9 10 12 16 21 26 33 37 40 42 44 46
68 71 74 73 67 60 53 45 39 37 33 30 27 25 22 18 15 11 8 7 9 12 16 20 26 30 35 39 43 44 47 51
79 81 79 80 74 64 57 49 44 41 35 31 27 25 21 18 14 11 11 13 15 18 21 24 29 35 40 42 45 49 51 53
82 83 84 82 74 67 57 49 44 39 33 28 24 22 19 17 14 14 15 17 19 22 26 27 31 38 43 47 49 50 52 52
84 89 87 82 73 62 55 47 42 37 31 27 23 20 18 15 14 14 14 16 20 23 27 31 33 37 43 48 53 53 55 53
75 82 77 71 62 56 50 45 41 36 30 26 22 19 16 14 13 15 18 21 25 27 31 35 39 39 44 49 55 59 63 61
72 70 65 57 53 53 49 47 39 33 28 24 21 17 15 13 15 17 20 24 28 31 32 33 39 38 43 49 49 56 63 64
64 64 58 49 49 49 47 41 36 31 26 24 20 16 13 13 15 19 23 26 29 32 32 35 40 41 43 49 46 50 62 65
54 57 52 54 54 51 45 40 34 29 27 22 18 15 14 15 18 22 25 28 30 33 37 40 42 45 47 49 53 55 60 64
50 51 49 52 56 46 39 35 30 25 22 19 17 13 13 15 19 23 27 30 32 36 38 41 44 45 48 54 56 62 67 68
48 47 49 51 46 44 39 34 29 25 21 18 16 13 15 18 21 24 28 30 32 34 38 43 45 45 41 48 49 55 58 63
49 49 49 47 44 38 33 28 24 20 18 17 17 16 18 21 22 24 26 26 28 32 36 40 44 44 43 47 44 47 50 58
47 43 39 39 39 34 29 25 21 20 20 18 17 18 22 24 26 26 25 28 28 31 37 41 45 45 48 43 40 48 52 57
42 44 41 38 33 29 25 27 26 19 17 18 20 23 26 28 30 32 33 34 32 32 38 40 42 44 45 40 50 51 48 55
43 45 46 43 37 31 28 22 18 18 20 22 25 28 29 30 31 33 36 40 43 39 31 38 40 42 42 45 50 55 58 57
Wind_Direction_850mb
210 215 220 220 227 231 238 250 265 277 284 288 292 292 292 293 292 294 295 294 292 290 290 292 294 297 299 298 303 306 307 306
217 224 226 227 230 234 240 247 255 262 269 275 281 284 287 291 294 295 295 294 294 295 294 294 298 301 304 312 319 324 328 330
228 232 234 230 228 232 237 242 246 253 263 271 276 282 287 291 293 296 297 296 297 297 296 298 301 311 342 349 349 349 347 348
232 241 239 232 231 237 241 244 248 255 263 270 277 284 290 294 296 297 296 296 296 296 302 319 315 343 348 350 350 351 352 351
235 239 238 236 236 240 242 244 250 258 266 272 278 283 287 290 294 297 299 301 303 306 318 328 319 337 343 350 349 348 349 347
237 242 238 238 236 238 243 245 251 257 265 272 278 282 285 286 288 292 302 315 328 338 339 336 327 336 343 345 344 343 343 342
241 242 240 238 238 239 241 241 245 251 255 261 267 272 273 273 272 276 289 314 330 336 338 339 332 338 339 339 338 340 338 338
245 242 240 239 237 237 238 238 239 243 248 253 258 262 262 262 265 277 298 317 326 332 335 337 332 333 333 334 335 336 336 337
241 240 240 240 236 234 235 235 237 239 243 246 249 250 251 255 269 291 309 319 326 332 332 332 329 329 328 329 331 332 332 336
242 236 235 236 234 230 228 228 231 233 234 236 237 241 246 255 274 293 308 319 324 329 329 328 328 328 326 327 329 329 329 332
229 227 228 230 227 225 222 220 222 224 224 226 227 234 250 267 289 307 317 322 325 327 327 327 324 333 329 331 331 330 330 334
219 218 221 223 220 219 216 218 218 217 216 218 222 231 242 267 294 305 315 320 322 323 325 321 319 328 325 324 330 329 328 331
211 213 220 217 213 212 212 212 210 208 208 215 222 234 253 277 294 305 312 314 317 317 318 319 322 327 327 326 331 328 330 329
216 213 209 204 205 207 208 202 201 201 208 215 226 241 262 286 301 307 310 313 315 317 319 321 323 327 325 325 327 326 328 326
216 208 200 199 198 203 201 197 199 206 214 223 235 250 276 294 302 306 307 309 314 316 317 320 324 325 323 325 330 326 326 325
217 209 201 196 198 187 190 192 198 207 217 230 247 265 283 291 300 306 306 310 314 316 318 320 321 323 322 324 330 324 325 318
208 207 198 190 188 185 186 195 204 214 224 238 254 272 287 295 301 303 303 306 310 316 316 316 317 318 317 323 324 322 322 320
197 197 197 188 188 188 192 202 212 227 235 251 274 288 294 297 297 294 294 303 309 312 312 313 315 317 318 324 320 320 324 322
187 191 195 197 195 195 204 218 223 233 250 269 283 291 295 296 298 301 306 308 311 313 313 312 312 313 318 319 320 321 322 321
190 193 199 203 205 209 213 222 237 254 267 279 288 290 290 292 298 304 308 310 312 313 312 308 310 315 321 320 323 324 325 324